This is the latest recevied weather packets stored in our database for station/object KC0RKM-13. If no packets are shown the sender has not sent any weather packets the latest 10 day(s).
| Time | Temp. | Humidity | Pressure | Rain* | Wind** | Luminosity | Snow |
|---|---|---|---|---|---|---|---|
| 1788012003 | 23.89° C | 64% | 1017 hPa | 0 mm | - | - | - |
| 1788011403 | 23.33° C | 65% | 1017.1 hPa | 0 mm | - | - | - |
| 1788010803 | 22.78° C | 65% | 1017.2 hPa | 0 mm | - | - | - |
| 1788010214 | 22.22° C | 66% | 1017.5 hPa | 0 mm | - | - | - |
| 1788009603 | 22.22° C | 66% | 1017.4 hPa | 0 mm | - | - | - |
| 1788009004 | 22.22° C | 66% | 1017.2 hPa | 0 mm | - | - | - |
| 1788008404 | 21.67° C | 67% | 1017 hPa | 0 mm | - | - | - |
| 1788007804 | 21.67° C | 67% | 1017.1 hPa | 0 mm | - | - | - |
| 1788007204 | 21.67° C | 67% | 1017 hPa | 0 mm | - | - | - |
| 1788006604 | 21.11° C | 67% | 1017.1 hPa | 0 mm | - | - | - |
| 1788006004 | 21.11° C | 68% | 1016.9 hPa | 0 mm | - | - | - |
| 1788005404 | 20° C | 72% | 1017.1 hPa | 0 mm | - | - | - |
| 1788004804 | 20° C | 71% | 1016.8 hPa | 0 mm | - | - | - |
| 1788004204 | 20° C | 71% | 1017.1 hPa | 0 mm | - | - | - |
| 1788003603 | 20° C | 71% | 1017.1 hPa | 0 mm | - | - | - |
| 1788003003 | 20° C | 71% | 1017.2 hPa | 0 mm | - | - | - |
| 1788002405 | 21.11° C | 67% | 1017 hPa | 0 mm | - | - | - |
| 1788001803 | 21.11° C | 67% | 1016.8 hPa | 0 mm | - | - | - |
| 1788001203 | 21.11° C | 65% | 1016.9 hPa | 0 mm | - | - | - |
| 1788000603 | 21.11° C | 65% | 1017.2 hPa | 0 mm | - | - | - |
| 1788000004 | 21.11° C | 66% | 1016.9 hPa | 0 mm | - | - | - |
| 1787999404 | 21.11° C | 65% | 1017 hPa | 0 mm | - | - | - |
| 1787998804 | 21.11° C | 65% | 1016.9 hPa | 0 mm | - | - | - |
| 1787998203 | 21.11° C | 65% | 1017.1 hPa | 0 mm | - | - | - |
| 1787997603 | 21.11° C | 65% | 1016.9 hPa | 0 mm | - | - | - |
* Rain latest hour (hover to see other rain measurements)
** Current wind speed in m/s (hover to see current wind gust speed)